SL-14 R/B, 23793

Orbit data source: Space-Track

SL-14 R/B, 23793 is space debris in LEO originally from a launch on Mon, 19 Feb 1996 UTC launched from the Plesetsk Missile And Space Complex (PKMTR). Debris objects in space refer to the collection of defunct objects orbiting the Earth. Examples of debris include non-operational satellites, rocket bodies, and fragments generated from explosions, collisions, or faulty payload assembly.

Loading next visibility...
Identifier
23793, 1996-009G
Orbit
LEO
Country
Flag of CISCIS
Related business
Manufacturer
Yuzhnoe
Mission
Spacecraft
Bus & Motor
S5M, Unknown motor
Mass
1,600 kg wet, 1,600 kg dry
Launch date (UTC)
1996-02-19 (31 years ago)
Launch vehicle
Unknown
Launch site
Plesetsk Missile And Space Complex (PKMTR)
Object type
Payload
Rocket body
Debris
Shape & HBR
Cyl, 1.8 m
Radar Cross Section
7.351 m², Large (>1 m²)

Expand to show TLE details & history
Last TLE update: 10 hours ago

TLE from 10 hours ago
0 SL-14 R/B
1 23793U 96009G   26266.14190200  .00000006  00000-0 -29469-4 0  9998
2 23793  82.5756 346.8643 0046098 110.4134 267.2367 12.55092164401647
Epoch: 2026-09-23T03:24Z
TLE epoch observation values (Epoch: 2026-09-23T03:24:20.332Z)
Latitude
16.96164°
Longitude
-63.95111°
Altitude
1,447.291 km
Speed
7.139 km/s
True Right ascension
23h 16m 31s
True Declination
16° 52' 28"
Sunlit
Object was in full shadow at epoch
Visualization orbit readout
Latitude
Unknown
Longitude
Unknown
Altitude
Unknown
Speed
Unknown
Apparent Right ascension
Unknown
Apparent Declination
Unknown
Sunlit
N/A
Visualization observer readout
Local Sidereal Time
06:09:08
Azimuth
Unknown
Elevation
Unknown
Doppler factor
Unknown
Orbital elements
Apogee altitude
1,476.642 km
Perigee altitude
1,404.556 km
Semi-major axis
7,818.736 km
Eccentricity
0.00461
Inclination
82.5756°
RAAN
346.8643°
Arg. of periapsis
110.4134°
True anomaly
266.70922°
Mean anomaly
267.2367°
Eccentric anomaly
266.97295°
Mean motion
3.13934 °/min
Orbital period
114.67 mins
BSTAR
-0.000029469
Loading maneuver chart data...
Computing Atmospheric mass density...
Loading historical data...
Loading historical data...
Loading historical data...
Loading historical data...
Loading historical data...
Loading historical data...
Loading historical data...

Documentation

Showing up to 5 results
|